Meath Environmental Platform

Observations for Trim Market St

Time AQI Temp °C Hum % Pres Pa CO μg/m³ H₂S μg/m³ NO μg/m³ NO₂ μg/m³ O₃ μg/m³ SO₂ μg/m³ PM1 μg/m³ PM2.5 μg/m³ PM10 μg/m³
Monday 24 August 2026
04:12 2 8.9 78 38,087 0.62 0 6.38 12.6 13.08 0 4.28 4.56 7.53
04:11 2 8.9 78 38,080 0.61 0 5.92 13.83 12.67 0 3.56 5.03 9.84
04:10 2 8.9 78 38,079 0.61 0 5.86 12.76 12.39 0 3.56 5.03 8.11
04:09 2 8.9 78 38,030 0.61 0 7.45 12.46 12.81 0 3.56 5.03 8.69
04:08 2 8.9 78 37,984 0.62 0 6.8 12.6 11.73 0 4.99 5.51 9.26
04:07 2 8.9 78 37,918 0.62 0 6.05 13.55 12.91 0 4.28 5.03 8.11
04:06 2 8.9 78 37,890 0.62 0 6.91 12.92 13.29 0 3.56 4.09 6.95
04:05 2 9 78 37,848 0.61 0 5.21 12.82 13.05 0 3.56 5.51 10.42
04:04 2 9 78 37,842 0.62 0 4.88 12.98 13.8 0 4.28 5.51 8.69
04:03 2 9 78 37,830 0.62 0 5.32 13.14 14.35 0 4.99 6.46 9.84
04:02 2 8.9 78 37,799 0.61 0 5.41 12.9 14.13 0 3.56 4.57 8.11
04:01 2 9 78 37,789 0.62 0 4.37 13.6 14.04 0 3.56 5.04 9.27
04:00 2 9 78 37,778 0.62 0 5.75 12.36 18.86 0 4.99 5.99 9.84
03:58 2 9 78 37,714 0.7 0 5.78 13.58 14.49 0 4.28 5.04 8.11
03:57 2 9 78 37,747 0.9 0 5.78 13.28 15.16 0 4.28 5.52 9.27
03:56 2 9 78 37,844 0.76 0 7.08 13.58 15.79 0 3.56 5.04 9.85
03:55 2 9 78 37,912 0.62 0 6.71 13.71 15.03 0 3.56 4.57 8.11
03:54 2 9 78 38,028 0.61 0 6.19 13.85 14.31 0 2.85 4.1 7.53
03:53 2 9 78 38,142 0.61 0 6.42 13.83 15.62 0 3.56 4.1 6.95
03:51 2 9 78 38,532 0.62 0 5.74 15.29 14.44 0 3.56 4.58 7.53